Trenton, NJ

5:39 AM EDT on August 27, 2016 (GMT -0400)
Trenton Mercer

Weather History for KTTN - October, 2010

Change the Weather History Date:

Saturday, October 16, 2010

  Actual Average Record
Temperature  
Mean Temperature 52 °F 54 °F  
Max Temperature 62 °F 65 °F 88 °F (1897)
Min Temperature 42 °F 44 °F 32 °F (2006)
Degree Days  
Heating Degree Days 13 11  
Month to date heating degree days 111 136  
Since 1 July heating degree days 115 201  
Cooling Degree Days 0 0  
Month to date cooling degree days 1 7  
Year to date cooling degree days 1536 962  
Growing Degree Days 4 (Base 50)    
Moisture  
Dew Point 36 °F    
Average Humidity 55    
Maximum Humidity 76    
Minimum Humidity 34    
Precipitation  
Precipitation 0.00 in 0.12 in 1.65 in (1974)
Month to date precipitation 4.31 2.24  
Year to date precipitation 32.46 37.49  
Sea Level Pressure  
Sea Level Pressure 29.80 in    
Wind  
Wind Speed 10 mph (NNW)    
Max Wind Speed 26 mph    
Max Gust Speed 36 mph    
Visibility 10 miles    
Events      
T = Trace of Precipitation, MM = Missing Value Source: NWS Daily Summary

Daily Weather History Graph

Daily Weather History Graph

Search for Another Location

Airport or City:

Trip Planner

Search our weather history database for the weather conditions in past years. The results will help you decide how hot, cold, wet, or windy it might be!

Date:

Astronomy

Oct. 16, 2010 Rise Set
Actual Time 7:11 AM EDT 6:17 PM EDT
Civil Twilight 6:43 AM EDT 6:45 PM EDT
Nautical Twilight 6:11 AM EDT 7:16 PM EDT
Astronomical Twilight 5:40 AM EDT 7:48 PM EDT
Moon 3:09 PM EDT (10/16) 1:01 AM EDT (10/16)
Length of Visible Light 12h 01m
Length of Day
11h 06m
Waxing Gibbous, 67% of the Moon is Illuminated
Oct 16
Waxing Gibbous
Oct 22
Full
Oct 30
Last Quarter
Nov 6
New
Nov 13
First Quarter

Hourly Weather History & Observations

Time (EDT) Temp. Windchill Dew Point Humidity Pressure Visibility Wind Dir Wind Speed Gust Speed Precip Events Conditions
12:53 AM 54.0 °F - 39.9 °F 59% 29.62 in 10.0 mi NNW 15.0 mph 31.1 mph N/A   Mostly Cloudy
1:53 AM 54.0 °F - 39.9 °F 59% 29.63 in 10.0 mi NW 11.5 mph 24.2 mph N/A   Overcast
2:53 AM 54.0 °F - 39.9 °F 59% 29.65 in 10.0 mi NNW 11.5 mph - N/A   Overcast
3:53 AM 54.0 °F - 39.0 °F 57% 29.65 in 10.0 mi NNW 11.5 mph - N/A   Overcast
4:53 AM 55.0 °F - 37.9 °F 53% 29.67 in 10.0 mi NNW 8.1 mph 23.0 mph N/A   Overcast
5:53 AM 55.0 °F - 37.0 °F 51% 29.69 in 10.0 mi NNW 15.0 mph 21.9 mph N/A   Mostly Cloudy
6:53 AM 54.0 °F - 37.0 °F 53% 29.72 in 10.0 mi NNW 11.5 mph 24.2 mph N/A   Overcast
7:53 AM 54.0 °F - 37.0 °F 53% 29.75 in 10.0 mi NNW 11.5 mph - N/A   Mostly Cloudy
8:53 AM 55.9 °F - 37.9 °F 51% 29.78 in 10.0 mi North 10.4 mph 18.4 mph N/A   Mostly Cloudy
9:53 AM 55.9 °F - 37.0 °F 49% 29.79 in 10.0 mi NNW 19.6 mph 29.9 mph N/A   Partly Cloudy
10:53 AM 57.9 °F - 35.1 °F 42% 29.81 in 10.0 mi North 19.6 mph 28.8 mph N/A   Partly Cloudy
11:53 AM 59.0 °F - 35.1 °F 41% 29.82 in 10.0 mi North 18.4 mph 31.1 mph N/A   Mostly Cloudy
12:53 PM 60.1 °F - 35.1 °F 39% 29.83 in 10.0 mi North 17.3 mph 32.2 mph N/A   Scattered Clouds
1:53 PM 60.1 °F - 35.1 °F 39% 29.82 in 10.0 mi North 15.0 mph 33.4 mph N/A   Scattered Clouds
2:53 PM 62.1 °F - 35.1 °F 37% 29.83 in 10.0 mi North 17.3 mph 27.6 mph N/A   Partly Cloudy
3:53 PM 62.1 °F - 34.0 °F 35% 29.84 in 10.0 mi NNW 16.1 mph 26.5 mph N/A   Clear
4:53 PM 62.1 °F - 34.0 °F 35% 29.84 in 10.0 mi NNW 15.0 mph 24.2 mph N/A   Clear
5:53 PM 60.1 °F - 34.0 °F 38% 29.86 in 10.0 mi NNW 6.9 mph - N/A   Clear
6:53 PM 57.0 °F - 34.0 °F 42% 29.88 in 10.0 mi North 3.5 mph - N/A   Clear
7:53 PM 54.0 °F - 34.0 °F 47% 29.90 in 10.0 mi Calm Calm - N/A   Clear
8:53 PM 51.1 °F - 35.1 °F 54% 29.91 in 10.0 mi Calm Calm - N/A   Clear
9:53 PM 48.0 °F - 37.0 °F 66% 29.93 in 10.0 mi Calm Calm - N/A   Clear
10:53 PM 45.0 °F - 37.0 °F 74% 29.95 in 10.0 mi Calm Calm - N/A   Clear
11:53 PM 44.1 °F 42.5 °F 35.1 °F 71% 29.96 in 10.0 mi WNW 3.5 mph - N/A   Clear